TGW122 NZCH-NZQN

Flight info

Callsign TGW122
Flight time 0h 40m
Altitude 22000
Route GUPUT Y266 ELRUV
Aircraft A20N/M-SDE2E3FGHIRWXY/LB1

Departure

Time 2026-04-30 11:31
Airport Christchurch International Airport (NZCH)

Arrival

Time 2026-04-30 12:11
Airport Queenstown Airport (NZQN)
Time Latitude Longitude Altitude Speed Heading
2026-04-30 11:13 -43.48896 172.53754 107 ft 0 kts 130°
2026-04-30 11:22 -43.48892 172.53748 108 ft 2 kts 130°
2026-04-30 11:23 -43.48884 172.53735 107 ft 2 kts 130°
2026-04-30 11:23 -43.48876 172.53722 108 ft 2 kts 130°
2026-04-30 11:23 -43.48852 172.53682 109 ft 3 kts 130°
2026-04-30 11:24 -43.48838 172.53659 109 ft 3 kts 130°
2026-04-30 11:24 -43.48822 172.53641 108 ft 3 kts 171°
2026-04-30 11:24 -43.48804 172.53649 109 ft 0 kts 221°
2026-04-30 11:26 -43.48837 172.53612 106 ft 6 kts 220°
2026-04-30 11:26 -43.48880 172.53563 108 ft 10 kts 214°
2026-04-30 11:26 -43.48944 172.53501 110 ft 13 kts 220°
2026-04-30 11:27 -43.49024 172.53407 111 ft 20 kts 220°
2026-04-30 11:27 -43.49153 172.53259 114 ft 27 kts 220°
2026-04-30 11:27 -43.49305 172.53083 117 ft 21 kts 219°
2026-04-30 11:27 -43.49408 172.52967 123 ft 20 kts 219°
2026-04-30 11:28 -43.49631 172.52713 123 ft 23 kts 222°
2026-04-30 11:28 -43.49757 172.52562 123 ft 25 kts 219°
2026-04-30 11:28 -43.49793 172.52418 125 ft 16 kts 270°
2026-04-30 11:29 -43.49776 172.52264 124 ft 16 kts 314°
2026-04-30 11:29 -43.49686 172.52303 122 ft 13 kts 34°
2026-04-30 11:29 -43.49669 172.52322 123 ft 0 kts 40°
2026-04-30 11:30 -43.49396 172.52630 122 ft 83 kts 39°
2026-04-30 11:30 -43.49129 172.52943 115 ft 113 kts 40°
2026-04-30 11:30 -43.48406 172.53784 165 ft 152 kts 41°
2026-04-30 11:31 -43.47621 172.54759 634 ft 155 kts 40°
2026-04-30 11:31 -43.46822 172.55690 1287 ft 145 kts 41°
2026-04-30 11:31 -43.46031 172.56619 1692 ft 162 kts 40°
2026-04-30 11:31 -43.45165 172.57646 2628 ft 149 kts 40°
2026-04-30 11:32 -43.44466 172.58505 3774 ft 134 kts 40°
2026-04-30 11:32 -43.43640 172.59494 3702 ft 194 kts 33°
2026-04-30 11:32 -43.42285 172.60293 4001 ft 227 kts
2026-04-30 11:33 -43.39331 172.58476 5513 ft 256 kts 303°
2026-04-30 11:33 -43.38693 172.56198 6561 ft 261 kts 276°
2026-04-30 11:33 -43.38864 172.53647 7144 ft 286 kts 252°
2026-04-30 11:33 -43.39905 172.51138 7277 ft 323 kts 228°
2026-04-30 11:34 -43.41734 172.49240 7403 ft 334 kts 205°
2026-04-30 11:34 -43.43954 172.48354 7514 ft 331 kts 189°
2026-04-30 11:34 -43.46168 172.47953 7604 ft 310 kts 185°
2026-04-30 11:34 -43.48250 172.47917 7705 ft 289 kts 176°
2026-04-30 11:35 -43.50210 172.47961 7648 ft 280 kts 181°
2026-04-30 11:35 -43.52155 172.47725 7719 ft 283 kts 196°
2026-04-30 11:35 -43.53880 172.46436 8245 ft 284 kts 223°
2026-04-30 11:35 -43.55045 172.44280 9242 ft 281 kts 241°
2026-04-30 11:36 -43.55999 172.41906 10167 ft 284 kts 241°
2026-04-30 11:36 -43.56983 172.39443 10623 ft 305 kts 242°
2026-04-30 11:36 -43.58027 172.36825 10953 ft 325 kts 242°
2026-04-30 11:36 -43.59135 172.34047 11523 ft 335 kts 242°
2026-04-30 11:37 -43.60266 172.31210 12321 ft 337 kts 242°
2026-04-30 11:37 -43.61398 172.28363 13127 ft 341 kts 242°
2026-04-30 11:37 -43.62552 172.25460 13859 ft 346 kts 242°
2026-04-30 11:37 -43.63711 172.22543 14646 ft 349 kts 242°
2026-04-30 11:38 -43.64885 172.19582 15279 ft 353 kts 242°
2026-04-30 11:38 -43.66071 172.16592 15970 ft 357 kts 242°
2026-04-30 11:38 -43.67271 172.13559 16613 ft 361 kts 243°
2026-04-30 11:38 -43.68480 172.10502 17277 ft 365 kts 243°
2026-04-30 11:39 -43.69685 172.07450 17916 ft 368 kts 243°
2026-04-30 11:39 -43.70917 172.04327 18556 ft 372 kts 243°
2026-04-30 11:39 -43.72165 172.01160 19136 ft 377 kts 243°
2026-04-30 11:39 -43.73422 171.97966 19734 ft 378 kts 243°
2026-04-30 11:40 -43.74682 171.94762 20343 ft 380 kts 243°
2026-04-30 11:40 -43.75943 171.91552 21015 ft 380 kts 243°
2026-04-30 11:40 -43.77190 171.88374 21552 ft 384 kts 243°
2026-04-30 11:40 -43.78487 171.85064 22136 ft 386 kts 242°
2026-04-30 11:41 -43.79771 171.81781 22329 ft 388 kts 242°
2026-04-30 11:41 -43.81058 171.78489 22444 ft 388 kts 242°
2026-04-30 11:41 -43.82326 171.75244 22550 ft 388 kts 242°
2026-04-30 11:41 -43.83611 171.71948 22647 ft 389 kts 242°
2026-04-30 11:42 -43.84935 171.68675 22648 ft 389 kts 240°
2026-04-30 11:42 -43.86318 171.65455 22644 ft 388 kts 240°
2026-04-30 11:42 -43.87714 171.62246 22648 ft 389 kts 240°
2026-04-30 11:42 -43.89107 171.59029 22648 ft 389 kts 240°
2026-04-30 11:43 -43.90492 171.55804 22649 ft 389 kts 240°
2026-04-30 11:43 -43.91870 171.52578 22648 ft 388 kts 240°
2026-04-30 11:43 -43.93240 171.49358 22649 ft 386 kts 240°
2026-04-30 11:43 -43.94605 171.46141 22649 ft 387 kts 240°
2026-04-30 11:44 -43.95968 171.42924 22648 ft 387 kts 240°
2026-04-30 11:44 -43.97316 171.39739 22649 ft 387 kts 240°
2026-04-30 11:44 -43.98677 171.36520 22645 ft 387 kts 240°
2026-04-30 11:44 -44.00037 171.33299 22648 ft 387 kts 240°
2026-04-30 11:45 -44.01403 171.30062 22650 ft 387 kts 240°
2026-04-30 11:45 -44.02763 171.26836 22647 ft 386 kts 241°
2026-04-30 11:45 -44.04120 171.23614 22648 ft 386 kts 241°
2026-04-30 11:45 -44.05475 171.20391 22651 ft 386 kts 241°
2026-04-30 11:46 -44.06817 171.17197 22650 ft 386 kts 241°
2026-04-30 11:46 -44.08171 171.13970 22657 ft 386 kts 241°
2026-04-30 11:46 -44.09518 171.10759 22652 ft 384 kts 241°
2026-04-30 11:46 -44.10867 171.07535 22647 ft 384 kts 241°
2026-04-30 11:47 -44.12211 171.04321 22652 ft 384 kts 241°
2026-04-30 11:47 -44.13556 171.01100 22653 ft 385 kts 241°
2026-04-30 11:47 -44.14903 170.97872 22650 ft 384 kts 241°
2026-04-30 11:47 -44.16245 170.94653 22652 ft 384 kts 241°
2026-04-30 11:48 -44.17586 170.91431 22653 ft 384 kts 241°
2026-04-30 11:48 -44.18927 170.88207 22657 ft 385 kts 241°
2026-04-30 11:48 -44.20269 170.84976 22657 ft 385 kts 241°
2026-04-30 11:48 -44.21608 170.81747 22649 ft 385 kts 241°
2026-04-30 11:49 -44.22949 170.78513 22656 ft 385 kts 241°
2026-04-30 11:49 -44.24285 170.75285 22666 ft 385 kts 242°
2026-04-30 11:49 -44.25621 170.72054 22653 ft 383 kts 242°
2026-04-30 11:49 -44.26952 170.68830 22654 ft 384 kts 242°
2026-04-30 11:50 -44.28283 170.65602 22661 ft 384 kts 242°
2026-04-30 11:50 -44.29613 170.62371 22649 ft 383 kts 242°
2026-04-30 11:50 -44.30940 170.59143 22667 ft 384 kts 242°
2026-04-30 11:50 -44.32270 170.55908 22667 ft 384 kts 242°
2026-04-30 11:51 -44.33596 170.52678 22659 ft 384 kts 242°
2026-04-30 11:51 -44.34922 170.49446 22669 ft 383 kts 242°
2026-04-30 11:51 -44.36248 170.46210 22657 ft 383 kts 242°
2026-04-30 11:51 -44.37555 170.43015 22666 ft 383 kts 242°
2026-04-30 11:52 -44.38877 170.39779 22665 ft 383 kts 242°
2026-04-30 11:52 -44.40201 170.36535 22668 ft 384 kts 242°
2026-04-30 11:52 -44.41521 170.33294 22663 ft 383 kts 242°
2026-04-30 11:52 -44.42843 170.30046 22661 ft 384 kts 242°
2026-04-30 11:53 -44.44161 170.26805 22671 ft 383 kts 242°
2026-04-30 11:53 -44.45480 170.23560 22672 ft 383 kts 242°
2026-04-30 11:53 -44.46797 170.20314 22671 ft 383 kts 242°
2026-04-30 11:53 -44.48113 170.17067 22662 ft 383 kts 242°
2026-04-30 11:54 -44.49427 170.13825 22663 ft 382 kts 242°
2026-04-30 11:54 -44.50737 170.10586 22661 ft 383 kts 242°
2026-04-30 11:54 -44.52048 170.07339 22670 ft 382 kts 242°
2026-04-30 11:54 -44.52914 170.05193 22670 ft 382 kts 242°
2026-04-30 11:55 -44.54666 170.00844 22672 ft 383 kts 242°
2026-04-30 11:55 -44.55974 169.97594 22669 ft 382 kts 242°
2026-04-30 11:55 -44.57257 169.94403 22670 ft 380 kts 242°
2026-04-30 11:55 -44.58557 169.91168 22666 ft 380 kts 242°
2026-04-30 11:56 -44.59850 169.87945 22429 ft 379 kts 242°
2026-04-30 11:56 -44.60727 169.85757 22016 ft 381 kts 243°
2026-04-30 11:56 -44.62034 169.82492 21167 ft 387 kts 243°
2026-04-30 11:56 -44.63351 169.79199 20264 ft 394 kts 243°
2026-04-30 11:57 -44.64687 169.75853 19606 ft 392 kts 243°
2026-04-30 11:57 -44.66015 169.72526 18980 ft 390 kts 243°
2026-04-30 11:57 -44.67334 169.69216 18341 ft 386 kts 243°
2026-04-30 11:57 -44.68639 169.65936 17702 ft 383 kts 243°
2026-04-30 11:58 -44.69933 169.62682 17066 ft 380 kts 243°
2026-04-30 11:58 -44.71215 169.59452 16449 ft 376 kts 243°
2026-04-30 11:58 -44.72485 169.56247 15877 ft 372 kts 243°
2026-04-30 11:58 -44.73733 169.53093 15041 ft 367 kts 243°
2026-04-30 11:59 -44.74968 169.49971 14132 ft 364 kts 244°
2026-04-30 11:59 -44.76176 169.46913 13239 ft 359 kts 243°
2026-04-30 11:59 -44.77380 169.43858 12471 ft 353 kts 243°
2026-04-30 11:59 -44.78548 169.40898 12006 ft 339 kts 243°
2026-04-30 12:00 -44.79672 169.38043 11503 ft 328 kts 243°
2026-04-30 12:00 -44.80754 169.35280 11049 ft 317 kts 244°
2026-04-30 12:00 -44.81623 169.32487 10598 ft 305 kts 252°
2026-04-30 12:00 -44.82172 169.29723 10403 ft 286 kts 258°
2026-04-30 12:01 -44.82597 169.27083 10259 ft 266 kts 258°
2026-04-30 12:01 -44.83009 169.24629 10096 ft 249 kts 257°
2026-04-30 12:01 -44.83398 169.22330 9899 ft 238 kts 258°
2026-04-30 12:01 -44.83784 169.20034 9714 ft 242 kts 258°
2026-04-30 12:02 -44.84169 169.17729 9533 ft 241 kts 258°
2026-04-30 12:02 -44.84551 169.15437 9285 ft 238 kts 257°
2026-04-30 12:02 -44.85089 169.13239 8911 ft 237 kts 245°
2026-04-30 12:02 -44.85935 169.11265 8813 ft 235 kts 234°
2026-04-30 12:03 -44.86997 169.09612 8563 ft 230 kts 224°
2026-04-30 12:03 -44.89830 169.07175 8530 ft 239 kts 202°
2026-04-30 12:03 -44.91387 169.06599 8428 ft 224 kts 192°
2026-04-30 12:04 -44.92949 169.06412 8354 ft 229 kts 182°
2026-04-30 12:04 -44.94546 169.06548 8266 ft 228 kts 178°
2026-04-30 12:04 -44.96089 169.06709 8037 ft 221 kts 179°
2026-04-30 12:04 -44.97599 169.06852 7729 ft 216 kts 179°
2026-04-30 12:05 -44.99096 169.06841 7421 ft 213 kts 192°
2026-04-30 12:05 -45.00500 169.06261 7088 ft 209 kts 208°
2026-04-30 12:05 -45.01712 169.05176 6699 ft 205 kts 223°
2026-04-30 12:05 -45.02639 169.03733 6526 ft 188 kts 237°
2026-04-30 12:06 -45.03249 169.02165 6171 ft 182 kts 250°
2026-04-30 12:06 -45.03590 169.00388 5499 ft 193 kts 264°
2026-04-30 12:06 -45.03622 168.98468 4995 ft 193 kts 277°
2026-04-30 12:06 -45.03382 168.96686 4833 ft 176 kts 288°
2026-04-30 12:07 -45.02948 168.95146 4632 ft 163 kts 298°
2026-04-30 12:07 -45.02396 168.93848 4413 ft 151 kts 303°
2026-04-30 12:07 -45.01845 168.92607 4147 ft 145 kts 303°
2026-04-30 12:07 -45.01318 168.91410 3831 ft 144 kts 303°
2026-04-30 12:08 -45.00792 168.90209 3525 ft 142 kts 304°
2026-04-30 12:08 -45.00293 168.89038 3304 ft 140 kts 300°
2026-04-30 12:08 -44.99947 168.87702 3138 ft 145 kts 285°
2026-04-30 12:08 -44.99859 168.86284 2988 ft 146 kts 270°
2026-04-30 12:09 -45.00012 168.84883 2817 ft 143 kts 259°
2026-04-30 12:09 -45.00222 168.83526 2576 ft 141 kts 259°
2026-04-30 12:09 -45.00416 168.82184 2377 ft 136 kts 260°
2026-04-30 12:09 -45.00627 168.80900 2107 ft 134 kts 256°
2026-04-30 12:10 -45.00894 168.79650 1791 ft 133 kts 252°
2026-04-30 12:10 -45.01167 168.78435 1638 ft 132 kts 254°
2026-04-30 12:10 -45.01432 168.77168 1451 ft 134 kts 255°
2026-04-30 12:10 -45.01636 168.75926 1283 ft 130 kts 261°
2026-04-30 12:11 -45.01818 168.74734 1167 ft 99 kts 258°
2026-04-30 12:11 -45.01925 168.74070 1166 ft 51 kts 253°
2026-04-30 12:11 -45.01991 168.73651 1167 ft 25 kts 261°
2026-04-30 12:11 -45.02022 168.73515 1165 ft 7 kts 264°
2026-04-30 12:12 -45.02020 168.73510 1165 ft 1 kts 292°
2026-04-30 12:12 -45.02001 168.73510 1163 ft 3 kts 20°
2026-04-30 12:12 -45.01993 168.73550 1165 ft 6 kts 82°
2026-04-30 12:12 -45.01988 168.73643 1167 ft 14 kts 82°
2026-04-30 12:13 -45.01965 168.73809 1166 ft 20 kts 79°
2026-04-30 12:13 -45.01936 168.73985 1166 ft 10 kts 79°
2026-04-30 12:13 -45.01986 168.74030 1162 ft 14 kts 198°
2026-04-30 12:13 -45.02072 168.73987 1162 ft 9 kts 199°
2026-04-30 12:14 -45.02098 168.73971 1164 ft 3 kts 203°
2026-04-30 12:14 -45.02109 168.73964 1162 ft 0 kts 203°